This demonstration page uses our WeatherBlox Daily Observations layout. Learn more.

Left ArrowRight Arrow

34.16533, -84.80231

Hourly Observations for February 1, 2020

Temp ( °F °C ) Dew Point ( °F °C ) Humidity (%) Winds ( mph kmh ) Pressure ( in mb ) Visibility ( mi km ) Precip ( " mm )
12:53 am 00:53 Cloudy 42 5.6 37 2.8 82 82 Calm 30.08 1019 10 16 0.00 0.00
1:53 am 01:53 Cloudy 42 5.6 37 2.8 82 82 Calm 30.06 1018 10 16 0.00 0.00
2:08 am 02:08 Cloudy 42 5.6 37 2.8 82 82 Calm 30.09 1019 10 16 0.00 0.00
2:53 am 02:53 Cloudy 42 5.6 37 2.8 82 82 Calm 30.06 1018 10 16 0.00 0.00
3:53 am 03:53 Cloudy 42 5.6 37 2.8 82 82 Calm 30.06 1018 10 16 0.00 0.00
4:20 am 04:20 Cloudy 42 5.6 38 3.3 85 85 Calm 30.08 1019 10 16 0.00 0.00
4:30 am 04:30 Cloudy 42 5.6 38 3.3 85 85 Calm 30.08 1019 10 16 0.00 0.00
4:53 am 04:53 Cloudy 42 5.6 39 3.9 89 89 Calm 30.05 1018 10 16 0.00 0.00
5:06 am 05:06 Cloudy 42 5.6 39 3.9 89 89 Calm 30.08 1019 10 16 0.00 0.00
5:53 am 05:53 Cloudy 42 5.6 39 3.9 89 89 Calm 30.04 1017 10 16 0.00 0.00
6:53 am 06:53 Cloudy 42 5.6 38 3.3 85 85 Calm 30.04 1017 10 16 0.00 0.00
7:14 am 07:14 Cloudy 42 5.6 38 3.3 85 85 Calm 30.08 1019 10 16 0.00 0.00
7:53 am 07:53 Cloudy 42 5.6 38 3.3 85 85 Calm 30.04 1017 10 16 0.00 0.00
8:08 am 08:08 Cloudy 42 5.6 38 3.3 85 85 Calm 30.07 1018 10 16 0.00 0.00
8:53 am 08:53 Cloudy 43 6.1 38 3.3 82 82 Calm 30.05 1018 10 16 0.00 0.00
9:53 am 09:53 Cloudy 44 6.7 38 3.3 79 79 Calm 30.04 1017 10 16 0.00 0.00
10:53 am 10:53 Cloudy 45 7.2 38 3.3 77 77 Calm 30.05 1018 9 14 0.00 0.00
11:42 am 11:42 Cloudy 46 7.8 39 3.9 77 77 Calm 30.07 1018 9 14 0.00 0.00
11:53 am 11:53 Cloudy 46 7.8 40 4.4 79 79 VRB 3 6 30.03 1017 7 11 0.00 0.00
12:32 pm 12:32 Cloudy with Mist and Fog 46 7.8 42 5.6 86 86 Calm 30.06 1018 6 10 0.01 0.25
12:42 pm 12:42 Cloudy with Mist and Fog 46 7.8 42 5.6 86 86 Calm 30.05 1017 6 10 0.01 0.25
12:53 pm 12:53 Cloudy 47 8.3 42 5.6 83 83 Calm 30.01 1016 7 11 0.01 0.25
1:53 pm 13:53 Cloudy 49 9.4 43 6.1 80 80 VRB 3 6 29.98 1015 10 16 0.00 0.00
2:26 pm 14:26 Cloudy 49 9.4 42 5.6 77 77 Calm 30.00 1016 10 16 0.00 0.00
2:53 pm 14:53 Cloudy 49 9.4 42 5.6 77 77 Calm 29.97 1015 10 16 0.00 0.00
3:40 pm 15:40 Cloudy 50 10 42 5.6 74 74 Calm 29.99 1016 10 16 0.00 0.00
3:53 pm 15:53 Cloudy 50 10 42 5.6 74 74 Calm 29.97 1015 10 16 0.00 0.00
4:53 pm 16:53 Cloudy 50 10 41 5 71 71 Calm 29.97 1015 10 16 0.00 0.00
5:53 pm 17:53 Cloudy 50 10 41 5 71 71 Calm 29.98 1015 10 16 0.00 0.00
9:53 pm 21:53 Cloudy 47 8.3 37 2.8 69 69 VRB 3 6 30.05 1018 10 16 0.00 0.00
10:53 pm 22:53 Mostly Clear 45 7.2 36 2.2 71 71 Calm 30.05 1018 10 16 0.00 0.00
11:53 pm 23:53 Partly Cloudy 44 6.7 35 1.7 71 71 Calm 30.06 1018 10 16 0.00 0.00

Powered by AerisWeather